Simultaneous Nadir Overpasses (SNOs) Predictions

Prediction of SNOs between GOES-15 and TERRA Satellite Orbit:

Table of predicted SNOs for the next 14.0 days since TLE Epoch: 12/16/2017
Index Date Time (GOES-15) GOES-15 Lat,Lon TERRA Lat,Lon Distance(km) Time Diff (sec)
1 12/16/2017 07:36:58 0.08,-135.44 -0.08,-136.29 95.97 80
2 12/18/2017 07:22:07 0.09,-135.43 0.52,-133.33 238.69 80
3 12/18/2017 19:46:03 -0.07,-135.36 0.58,-138.48 354.88 80
4 12/20/2017 19:33:53 -0.07,-135.34 -0.02,-135.53 21.30 80
5 12/22/2017 19:19:04 -0.07,-135.32 -0.64,-132.58 311.49 80
6 12/23/2017 07:43:09 0.06,-135.38 -0.45,-137.78 272.27 80
7 12/25/2017 07:28:21 0.06,-135.35 0.17,-134.83 59.28 80
8 12/27/2017 07:16:14 0.06,-135.32 0.80,-131.89 389.87 80
9 12/27/2017 19:40:10 -0.04,-135.24 0.36,-137.04 205.38 80
10 12/29/2017 19:25:24 -0.05,-135.20 -0.27,-134.11 123.74 80




NCC Satellite Simultaneous Nadir Overpasses (SNOs) Prediction Service
